N48MQ -KHSV

Flight info

Callsign N48MQ
Flight time N/A
Altitude VFR
Route
Aircraft

Departure

Time N/A
Airport -

Arrival

Time 2026-05-06 01:29
Airport Huntsville International Airport (KHSV)
Time Latitude Longitude Altitude Speed Heading
2026-05-06 00:11 32.34223 -88.74634 298 ft 0 kts 180°
2026-05-06 00:11 32.34227 -88.74659 297 ft 10 kts 313°
2026-05-06 00:11 32.34286 -88.74747 296 ft 0 kts 296°
2026-05-06 00:12 32.34290 -88.74758 295 ft 6 kts 292°
2026-05-06 00:12 32.34299 -88.74884 292 ft 22 kts 269°
2026-05-06 00:12 32.34300 -88.74995 288 ft 2 kts 268°
2026-05-06 00:13 32.34299 -88.75013 288 ft 8 kts 266°
2026-05-06 00:13 32.34297 -88.75043 287 ft 0 kts 270°
2026-05-06 00:14 32.34299 -88.75060 287 ft 10 kts 273°
2026-05-06 00:14 32.34204 -88.75180 286 ft 25 kts 194°
2026-05-06 00:15 32.33902 -88.75256 286 ft 74 kts 185°
2026-05-06 00:15 32.33239 -88.75347 308 ft 110 kts 189°
2026-05-06 00:15 32.32543 -88.75530 783 ft 93 kts 193°
2026-05-06 00:15 32.31915 -88.75766 1118 ft 99 kts 210°
2026-05-06 00:16 32.31637 -88.76540 1415 ft 114 kts 276°
2026-05-06 00:16 32.32006 -88.77163 1677 ft 124 kts 323°
2026-05-06 00:16 32.32850 -88.77253 2084 ft 121 kts 23°
2026-05-06 00:16 32.33481 -88.76608 2390 ft 121 kts 62°
2026-05-06 00:17 32.33832 -88.75749 2768 ft 115 kts 76°
2026-05-06 00:17 32.34112 -88.74834 3060 ft 120 kts 74°
2026-05-06 00:17 32.34477 -88.73919 3366 ft 125 kts 63°
2026-05-06 00:17 32.34989 -88.73048 3675 ft 128 kts 56°
2026-05-06 00:18 32.35567 -88.72201 3986 ft 130 kts 53°
2026-05-06 00:18 32.36167 -88.71367 4295 ft 133 kts 51°
2026-05-06 00:18 32.36787 -88.70528 4601 ft 137 kts 50°
2026-05-06 00:18 32.37422 -88.69679 4904 ft 139 kts 50°
2026-05-06 00:19 32.38069 -88.68817 5206 ft 141 kts 49°
2026-05-06 00:19 32.38724 -88.67947 5508 ft 142 kts 49°
2026-05-06 00:19 32.39384 -88.67072 5809 ft 143 kts 49°
2026-05-06 00:19 32.40060 -88.66174 6115 ft 144 kts 49°
2026-05-06 00:20 32.40737 -88.65276 6421 ft 144 kts 48°
2026-05-06 00:20 32.41414 -88.64378 6727 ft 144 kts 48°
2026-05-06 00:20 32.42094 -88.63474 7035 ft 144 kts 47°
2026-05-06 00:20 32.42773 -88.62572 7341 ft 145 kts 47°
2026-05-06 00:21 32.43486 -88.61626 7486 ft 158 kts 47°
2026-05-06 00:21 32.44273 -88.60577 7494 ft 174 kts 47°
2026-05-06 00:21 32.45108 -88.59462 7486 ft 179 kts 47°
2026-05-06 00:21 32.45963 -88.58324 7484 ft 180 kts 47°
2026-05-06 00:22 32.46811 -88.57195 7483 ft 180 kts 47°
2026-05-06 00:22 32.47675 -88.56046 7483 ft 180 kts 47°
2026-05-06 00:22 32.48519 -88.54922 7483 ft 180 kts 47°
2026-05-06 00:22 32.49377 -88.53780 7483 ft 181 kts 47°
2026-05-06 00:23 32.50229 -88.52644 7483 ft 181 kts 47°
2026-05-06 00:23 32.51075 -88.51517 7483 ft 181 kts 47°
2026-05-06 00:23 32.51953 -88.50348 7483 ft 181 kts 47°
2026-05-06 00:23 32.52824 -88.49186 7483 ft 181 kts 47°
2026-05-06 00:24 32.53685 -88.48038 7484 ft 181 kts 47°
2026-05-06 00:24 32.54548 -88.46887 7492 ft 180 kts 47°
2026-05-06 00:24 32.55398 -88.45753 7492 ft 180 kts 47°
2026-05-06 00:24 32.56265 -88.44595 7493 ft 181 kts 47°
2026-05-06 00:25 32.57110 -88.43467 7493 ft 181 kts 47°
2026-05-06 00:25 32.57977 -88.42309 7493 ft 181 kts 47°
2026-05-06 00:25 32.58830 -88.41169 7493 ft 181 kts 47°
2026-05-06 00:25 32.59683 -88.40029 7493 ft 181 kts 47°
2026-05-06 00:26 32.60539 -88.38885 7493 ft 181 kts 47°
2026-05-06 00:26 32.61380 -88.37759 7493 ft 181 kts 47°
2026-05-06 00:26 32.62237 -88.36613 7493 ft 181 kts 47°
2026-05-06 00:26 32.63091 -88.35471 7493 ft 181 kts 47°
2026-05-06 00:27 32.63961 -88.34306 7490 ft 181 kts 48°
2026-05-06 00:27 32.64808 -88.33171 7490 ft 181 kts 48°
2026-05-06 00:27 32.65660 -88.32030 7490 ft 180 kts 48°
2026-05-06 00:27 32.66507 -88.30894 7490 ft 180 kts 48°
2026-05-06 00:28 32.67353 -88.29757 7490 ft 180 kts 48°
2026-05-06 00:28 32.68196 -88.28627 7490 ft 180 kts 48°
2026-05-06 00:28 32.69042 -88.27491 7490 ft 180 kts 48°
2026-05-06 00:28 32.69894 -88.26347 7490 ft 180 kts 48°
2026-05-06 00:29 32.70740 -88.25213 7490 ft 180 kts 48°
2026-05-06 00:29 32.71580 -88.24085 7490 ft 180 kts 48°
2026-05-06 00:29 32.72425 -88.22950 7490 ft 180 kts 48°
2026-05-06 00:29 32.73268 -88.21818 7490 ft 180 kts 48°
2026-05-06 00:30 32.74114 -88.20682 7490 ft 180 kts 48°
2026-05-06 00:30 32.74952 -88.19556 7490 ft 180 kts 48°
2026-05-06 00:30 32.75784 -88.18436 7490 ft 180 kts 48°
2026-05-06 00:30 32.76612 -88.17323 7491 ft 180 kts 48°
2026-05-06 00:31 32.77454 -88.16191 7491 ft 180 kts 48°
2026-05-06 00:31 32.78287 -88.15070 7491 ft 180 kts 48°
2026-05-06 00:31 32.79127 -88.13939 7491 ft 180 kts 48°
2026-05-06 00:31 32.79961 -88.12814 7491 ft 180 kts 48°
2026-05-06 00:32 32.80797 -88.11690 7491 ft 180 kts 48°
2026-05-06 00:32 32.81628 -88.10568 7491 ft 180 kts 48°
2026-05-06 00:32 32.82467 -88.09438 7491 ft 181 kts 48°
2026-05-06 00:32 32.83311 -88.08301 7491 ft 181 kts 48°
2026-05-06 00:33 32.84159 -88.07157 7491 ft 181 kts 48°
2026-05-06 00:33 32.85007 -88.06012 7491 ft 181 kts 48°
2026-05-06 00:33 32.85849 -88.04876 7491 ft 181 kts 48°
2026-05-06 00:33 32.86682 -88.03752 7491 ft 181 kts 47°
2026-05-06 00:34 32.87530 -88.02608 7491 ft 181 kts 47°
2026-05-06 00:34 32.88370 -88.01473 7492 ft 182 kts 47°
2026-05-06 00:34 32.89208 -88.00340 7492 ft 182 kts 47°
2026-05-06 00:34 32.90047 -87.99206 7492 ft 182 kts 47°
2026-05-06 00:35 32.90898 -87.98057 7492 ft 182 kts 47°
2026-05-06 00:35 32.91746 -87.96909 7492 ft 182 kts 47°
2026-05-06 00:35 32.92606 -87.95746 7492 ft 182 kts 47°
2026-05-06 00:35 32.93465 -87.94583 7492 ft 183 kts 47°
2026-05-06 00:36 32.94317 -87.93430 7492 ft 183 kts 47°
2026-05-06 00:36 32.95169 -87.92276 7492 ft 183 kts 47°
2026-05-06 00:36 32.96025 -87.91116 7492 ft 183 kts 47°
2026-05-06 00:36 32.96878 -87.89960 7492 ft 183 kts 47°
2026-05-06 00:37 32.97736 -87.88797 7492 ft 183 kts 47°
2026-05-06 00:37 32.98600 -87.87626 7492 ft 183 kts 47°
2026-05-06 00:37 32.99450 -87.86473 7492 ft 183 kts 47°
2026-05-06 00:37 33.00305 -87.85313 7492 ft 183 kts 47°
2026-05-06 00:38 33.01141 -87.84178 7492 ft 183 kts 47°
2026-05-06 00:38 33.01981 -87.83038 7493 ft 183 kts 47°
2026-05-06 00:38 33.02822 -87.81895 7493 ft 183 kts 47°
2026-05-06 00:38 33.03660 -87.80758 7493 ft 183 kts 46°
2026-05-06 00:39 33.04504 -87.79611 7493 ft 183 kts 46°
2026-05-06 00:39 33.05345 -87.78468 7493 ft 183 kts 46°
2026-05-06 00:39 33.06185 -87.77325 7493 ft 183 kts 46°
2026-05-06 00:39 33.07032 -87.76173 7493 ft 183 kts 46°
2026-05-06 00:40 33.07875 -87.75026 7493 ft 183 kts 46°
2026-05-06 00:40 33.08725 -87.73868 7493 ft 183 kts 46°
2026-05-06 00:40 33.09565 -87.72723 7493 ft 183 kts 46°
2026-05-06 00:40 33.10406 -87.71577 7491 ft 182 kts 46°
2026-05-06 00:41 33.11253 -87.70424 7491 ft 182 kts 46°
2026-05-06 00:41 33.12085 -87.69291 7491 ft 182 kts 46°
2026-05-06 00:41 33.12923 -87.68149 7491 ft 182 kts 46°
2026-05-06 00:41 33.13760 -87.67006 7491 ft 182 kts 46°
2026-05-06 00:42 33.14598 -87.65864 7491 ft 182 kts 46°
2026-05-06 00:42 33.15434 -87.64724 7450 ft 184 kts 46°
2026-05-06 00:42 33.16267 -87.63586 7446 ft 183 kts 46°
2026-05-06 00:42 33.17117 -87.62426 7445 ft 183 kts 46°
2026-05-06 00:43 33.17951 -87.61286 7445 ft 182 kts 46°
2026-05-06 00:43 33.18777 -87.60158 7446 ft 182 kts 46°
2026-05-06 00:43 33.19621 -87.59005 7446 ft 182 kts 46°
2026-05-06 00:43 33.20453 -87.57867 7446 ft 182 kts 46°
2026-05-06 00:44 33.21286 -87.56728 7446 ft 182 kts 46°
2026-05-06 00:44 33.22114 -87.55595 7446 ft 182 kts 46°
2026-05-06 00:44 33.22950 -87.54451 7446 ft 182 kts 46°
2026-05-06 00:44 33.23789 -87.53303 7446 ft 182 kts 46°
2026-05-06 00:45 33.24619 -87.52166 7446 ft 182 kts 46°
2026-05-06 00:45 33.25452 -87.51026 7446 ft 182 kts 46°
2026-05-06 00:45 33.26300 -87.49863 7446 ft 182 kts 46°
2026-05-06 00:45 33.27128 -87.48730 7446 ft 182 kts 46°
2026-05-06 00:46 33.27970 -87.47575 7447 ft 182 kts 46°
2026-05-06 00:46 33.28805 -87.46429 7446 ft 180 kts 46°
2026-05-06 00:46 33.29631 -87.45296 7446 ft 180 kts 46°
2026-05-06 00:46 33.30457 -87.44163 7446 ft 179 kts 46°
2026-05-06 00:47 33.31276 -87.43039 7447 ft 179 kts 46°
2026-05-06 00:47 33.32092 -87.41919 7447 ft 178 kts 46°
2026-05-06 00:47 33.32914 -87.40789 7447 ft 178 kts 46°
2026-05-06 00:47 33.33738 -87.39658 7447 ft 178 kts 46°
2026-05-06 00:48 33.34561 -87.38526 7447 ft 178 kts 46°
2026-05-06 00:48 33.35391 -87.37386 7447 ft 178 kts 46°
2026-05-06 00:48 33.36198 -87.36276 7447 ft 178 kts 46°
2026-05-06 00:48 33.37024 -87.35142 7448 ft 178 kts 46°
2026-05-06 00:49 33.37834 -87.34027 7445 ft 178 kts 46°
2026-05-06 00:49 33.38649 -87.32905 7447 ft 177 kts 46°
2026-05-06 00:49 33.39455 -87.31795 7450 ft 177 kts 46°
2026-05-06 00:49 33.40266 -87.30678 7452 ft 176 kts 46°
2026-05-06 00:50 33.41069 -87.29572 7454 ft 176 kts 46°
2026-05-06 00:50 33.41872 -87.28465 7456 ft 176 kts 46°
2026-05-06 00:50 33.42670 -87.27365 7458 ft 176 kts 46°
2026-05-06 00:50 33.43470 -87.26262 7461 ft 176 kts 46°
2026-05-06 00:51 33.44278 -87.25147 7463 ft 176 kts 46°
2026-05-06 00:51 33.45192 -87.24222 7466 ft 171 kts 23°
2026-05-06 00:51 33.46267 -87.23663 7469 ft 168 kts 15°
2026-05-06 00:51 33.47370 -87.23189 7469 ft 167 kts 12°
2026-05-06 00:52 33.48479 -87.22794 7471 ft 165 kts
2026-05-06 00:52 33.49581 -87.22429 7472 ft 165 kts
2026-05-06 00:52 33.50685 -87.22064 7473 ft 164 kts
2026-05-06 00:52 33.51776 -87.21707 7474 ft 164 kts
2026-05-06 00:53 33.52884 -87.21345 7475 ft 163 kts
2026-05-06 00:53 33.53978 -87.20988 7476 ft 163 kts
2026-05-06 00:53 33.55067 -87.20634 7477 ft 162 kts
2026-05-06 00:53 33.56149 -87.20282 7478 ft 162 kts
2026-05-06 00:54 33.57226 -87.19932 7479 ft 161 kts
2026-05-06 00:54 33.58308 -87.19580 7480 ft 161 kts
2026-05-06 00:54 33.59390 -87.19228 7481 ft 161 kts
2026-05-06 00:54 33.60462 -87.18880 7481 ft 160 kts
2026-05-06 00:55 33.61546 -87.18527 7481 ft 160 kts
2026-05-06 00:55 33.62608 -87.18182 7480 ft 160 kts
2026-05-06 00:55 33.63684 -87.17831 7479 ft 159 kts
2026-05-06 00:55 33.64751 -87.17484 7478 ft 158 kts
2026-05-06 00:56 33.65809 -87.17139 7477 ft 157 kts
2026-05-06 00:56 33.66862 -87.16795 7475 ft 157 kts
2026-05-06 00:56 33.67916 -87.16453 7474 ft 156 kts
2026-05-06 00:56 33.68948 -87.16116 7473 ft 155 kts
2026-05-06 00:57 33.69994 -87.15775 7471 ft 154 kts
2026-05-06 00:57 33.71013 -87.15443 7470 ft 153 kts
2026-05-06 00:57 33.72049 -87.15105 7468 ft 152 kts
2026-05-06 00:57 33.73063 -87.14774 7467 ft 151 kts
2026-05-06 00:58 33.74063 -87.14448 7466 ft 150 kts
2026-05-06 00:58 33.75072 -87.14119 7464 ft 149 kts
2026-05-06 00:58 33.76073 -87.13792 7462 ft 148 kts
2026-05-06 00:58 33.77058 -87.13470 7461 ft 147 kts
2026-05-06 00:59 33.78049 -87.13147 7461 ft 147 kts
2026-05-06 00:59 33.79034 -87.12825 7461 ft 146 kts
2026-05-06 00:59 33.80004 -87.12508 7461 ft 146 kts
2026-05-06 00:59 33.80991 -87.12186 7461 ft 146 kts
2026-05-06 01:00 33.81959 -87.11869 7461 ft 145 kts
2026-05-06 01:00 33.82939 -87.11549 7462 ft 145 kts
2026-05-06 01:00 33.83915 -87.11230 7462 ft 145 kts 10°
2026-05-06 01:00 33.84885 -87.10913 7462 ft 145 kts 10°
2026-05-06 01:01 33.85860 -87.10593 7462 ft 145 kts 10°
2026-05-06 01:01 33.86826 -87.10278 7462 ft 144 kts 10°
2026-05-06 01:01 33.87803 -87.09958 7462 ft 144 kts 10°
2026-05-06 01:01 33.88769 -87.09641 7462 ft 144 kts 10°
2026-05-06 01:02 33.89730 -87.09327 7462 ft 144 kts 10°
2026-05-06 01:02 33.90702 -87.09008 7461 ft 144 kts 10°
2026-05-06 01:02 33.91653 -87.08697 7461 ft 143 kts 10°
2026-05-06 01:02 33.92626 -87.08378 7461 ft 143 kts 10°
2026-05-06 01:03 33.93584 -87.08064 7461 ft 143 kts 10°
2026-05-06 01:03 33.94534 -87.07752 7461 ft 143 kts 10°
2026-05-06 01:03 33.95492 -87.07438 7461 ft 142 kts 10°
2026-05-06 01:03 33.96442 -87.07127 7461 ft 142 kts 11°
2026-05-06 01:04 33.97398 -87.06813 7461 ft 142 kts 11°
2026-05-06 01:04 33.98357 -87.06498 7461 ft 142 kts 11°
2026-05-06 01:04 33.99308 -87.06186 7461 ft 141 kts 11°
2026-05-06 01:04 34.00250 -87.05876 7460 ft 141 kts 11°
2026-05-06 01:05 34.01193 -87.05566 7460 ft 141 kts 11°
2026-05-06 01:05 34.02143 -87.05254 7460 ft 141 kts 11°
2026-05-06 01:05 34.03092 -87.04943 7460 ft 141 kts 11°
2026-05-06 01:05 34.04035 -87.04633 7460 ft 140 kts 11°
2026-05-06 01:06 34.04982 -87.04321 7460 ft 140 kts 11°
2026-05-06 01:06 34.05914 -87.04015 7460 ft 140 kts 11°
2026-05-06 01:06 34.06860 -87.03704 7460 ft 140 kts 11°
2026-05-06 01:06 34.07805 -87.03394 7460 ft 140 kts 11°
2026-05-06 01:07 34.08731 -87.03088 7460 ft 139 kts 12°
2026-05-06 01:07 34.09660 -87.02782 7509 ft 136 kts 12°
2026-05-06 01:07 34.10583 -87.02479 7511 ft 137 kts 12°
2026-05-06 01:07 34.11498 -87.02178 7511 ft 137 kts 13°
2026-05-06 01:08 34.12426 -87.01873 7511 ft 138 kts 13°
2026-05-06 01:08 34.13373 -87.01562 7467 ft 148 kts 12°
2026-05-06 01:08 34.14389 -87.01231 7510 ft 154 kts 11°
2026-05-06 01:08 34.15440 -87.00886 7512 ft 161 kts 11°
2026-05-06 01:09 34.16528 -87.00527 7511 ft 165 kts 11°
2026-05-06 01:09 34.17650 -87.00156 7510 ft 169 kts 11°
2026-05-06 01:09 34.18800 -86.99776 7509 ft 171 kts 11°
2026-05-06 01:09 34.19946 -86.99398 7509 ft 172 kts 10°
2026-05-06 01:10 34.21093 -86.99020 7509 ft 172 kts 10°
2026-05-06 01:10 34.22268 -86.98632 7508 ft 172 kts 10°
2026-05-06 01:10 34.23443 -86.98244 7508 ft 172 kts
2026-05-06 01:10 34.24597 -86.97863 7508 ft 172 kts
2026-05-06 01:11 34.25751 -86.97482 7508 ft 172 kts
2026-05-06 01:11 34.26905 -86.97100 7508 ft 172 kts
2026-05-06 01:11 34.28064 -86.96717 7508 ft 172 kts
2026-05-06 01:11 34.29210 -86.96339 7508 ft 172 kts
2026-05-06 01:12 34.30374 -86.95953 7508 ft 172 kts
2026-05-06 01:12 34.31520 -86.95573 7508 ft 172 kts
2026-05-06 01:12 34.32683 -86.95189 7508 ft 172 kts
2026-05-06 01:12 34.33824 -86.94811 7508 ft 172 kts
2026-05-06 01:13 34.34987 -86.94426 7508 ft 172 kts
2026-05-06 01:13 34.36144 -86.94042 7502 ft 173 kts
2026-05-06 01:13 34.37218 -86.93681 7343 ft 148 kts
2026-05-06 01:13 34.38152 -86.93368 7197 ft 133 kts
2026-05-06 01:14 34.39821 -86.92821 6927 ft 119 kts
2026-05-06 01:14 34.40607 -86.92561 6795 ft 115 kts
2026-05-06 01:14 34.41367 -86.92311 6667 ft 113 kts
2026-05-06 01:15 34.42119 -86.92062 6539 ft 111 kts
2026-05-06 01:15 34.42871 -86.91814 6410 ft 111 kts
2026-05-06 01:15 34.43615 -86.91569 6289 ft 113 kts
2026-05-06 01:15 34.44394 -86.91314 6177 ft 120 kts
2026-05-06 01:16 34.45211 -86.91044 6060 ft 124 kts
2026-05-06 01:16 34.46061 -86.90761 5939 ft 127 kts
2026-05-06 01:16 34.46917 -86.90475 5816 ft 128 kts 10°
2026-05-06 01:16 34.47774 -86.90190 5693 ft 129 kts 10°
2026-05-06 01:17 34.48649 -86.89899 5568 ft 129 kts 10°
2026-05-06 01:17 34.49509 -86.89613 5445 ft 130 kts 11°
2026-05-06 01:17 34.50388 -86.89320 5320 ft 130 kts 11°
2026-05-06 01:17 34.51250 -86.89033 5197 ft 130 kts 11°
2026-05-06 01:18 34.52126 -86.88743 5073 ft 131 kts 11°
2026-05-06 01:18 34.53010 -86.88449 4949 ft 132 kts 11°
2026-05-06 01:18 34.53899 -86.88153 4825 ft 132 kts 12°
2026-05-06 01:18 34.54777 -86.87861 4702 ft 132 kts 12°
2026-05-06 01:19 34.55669 -86.87563 4578 ft 132 kts 12°
2026-05-06 01:19 34.56550 -86.87270 4455 ft 132 kts 12°
2026-05-06 01:19 34.57442 -86.86973 4330 ft 132 kts 12°
2026-05-06 01:19 34.58326 -86.86679 4206 ft 132 kts 13°
2026-05-06 01:20 34.59213 -86.86383 4082 ft 131 kts 13°
2026-05-06 01:20 34.60081 -86.86094 3989 ft 128 kts 13°
2026-05-06 01:20 34.60925 -86.85811 3980 ft 123 kts 13°
2026-05-06 01:20 34.61785 -86.85526 3994 ft 135 kts 13°
2026-05-06 01:21 34.62740 -86.85209 3992 ft 146 kts 13°
2026-05-06 01:21 34.63729 -86.84877 3989 ft 152 kts 13°
2026-05-06 01:21 34.64769 -86.84528 3987 ft 157 kts 13°
2026-05-06 01:21 34.65824 -86.84175 3986 ft 160 kts 13°
2026-05-06 01:22 34.66902 -86.83814 3985 ft 162 kts 13°
2026-05-06 01:22 34.68003 -86.83446 3978 ft 161 kts 13°
2026-05-06 01:22 34.69046 -86.83099 3745 ft 153 kts 13°
2026-05-06 01:22 34.70051 -86.82764 3497 ft 150 kts 14°
2026-05-06 01:23 34.71056 -86.82430 3246 ft 150 kts 14°
2026-05-06 01:23 34.72062 -86.82094 2998 ft 149 kts 14°
2026-05-06 01:23 34.73025 -86.81771 2744 ft 140 kts 15°
2026-05-06 01:23 34.73925 -86.81471 2516 ft 130 kts 15°
2026-05-06 01:24 34.74791 -86.81182 2485 ft 128 kts 15°
2026-05-06 01:24 34.75643 -86.80902 2473 ft 125 kts 17°
2026-05-06 01:24 34.76337 -86.80318 2426 ft 122 kts 60°
2026-05-06 01:24 34.76534 -86.79394 2403 ft 110 kts 107°
2026-05-06 01:25 34.76173 -86.78657 2385 ft 97 kts 150°
2026-05-06 01:25 34.75590 -86.78274 2355 ft 96 kts 163°
2026-05-06 01:25 34.74964 -86.78088 2324 ft 91 kts 176°
2026-05-06 01:25 34.74327 -86.78049 2259 ft 92 kts 181°
2026-05-06 01:26 34.73682 -86.78049 2181 ft 93 kts 182°
2026-05-06 01:26 34.73031 -86.78059 2092 ft 95 kts 182°
2026-05-06 01:26 34.72364 -86.78071 1991 ft 96 kts 182°
2026-05-06 01:26 34.71688 -86.78084 1880 ft 98 kts 182°
2026-05-06 01:27 34.71005 -86.78097 1761 ft 99 kts 182°
2026-05-06 01:27 34.70308 -86.78111 1634 ft 99 kts 181°
2026-05-06 01:27 34.69620 -86.78125 1505 ft 99 kts 181°
2026-05-06 01:27 34.68924 -86.78139 1374 ft 100 kts 181°
2026-05-06 01:28 34.68231 -86.78153 1241 ft 100 kts 181°
2026-05-06 01:28 34.67538 -86.78166 1108 ft 101 kts 181°
2026-05-06 01:28 34.66887 -86.78178 990 ft 83 kts 181°
2026-05-06 01:28 34.66350 -86.78188 877 ft 74 kts 180°
2026-05-06 01:29 34.65846 -86.78198 778 ft 69 kts 181°
2026-05-06 01:29 34.65369 -86.78203 658 ft 67 kts 183°
2026-05-06 01:29 34.64955 -86.78217 622 ft 44 kts 183°
2026-05-06 01:29 34.64856 -86.78210 622 ft 9 kts
2026-05-06 01:30 34.64910 -86.78215 622 ft 5 kts 24°
2026-05-06 01:30 34.64902 -86.78161 622 ft 20 kts 107°
2026-05-06 01:30 34.64874 -86.77924 617 ft 26 kts 115°
2026-05-06 01:30 34.64813 -86.77721 613 ft 25 kts 91°
2026-05-06 01:31 34.64784 -86.77584 610 ft 19 kts 174°
2026-05-06 01:31 34.64579 -86.77613 611 ft 32 kts 156°
2026-05-06 01:31 34.64551 -86.77413 607 ft 22 kts 58°
2026-05-06 01:31 34.64667 -86.77322 605 ft 19 kts 38°
2026-05-06 01:32 34.64755 -86.77273 604 ft 0 kts 230°